Regional Weather Roundup
Issued by NWS Sterling, VA

Home | Current Version | Previous Version | Graphics & Text | Print | Product List | Glossary On
Versions: 1 2 3 4 5 6 7 8 9 10 11 12 13 14 15 16 17 18 19 20 21 22 23 24 25 26 27 28 29 30 31 32 33 34 35 36 37 38 39 40 41 42 43 44 45 46 47 48 49 50
000
ASUS41 KLWX 261211
RWRLWX

REGIONAL WEATHER ROUNDUP
NATIONAL WEATHER SERVICE BALTIMORE MD/WASHINGTON DC
800 AM EDT WED APR 26 2017

Note: "FAIR" indicates few or no clouds below 12,000 feet
with no significant weather and/or obstructions to visibility.
 TC=TEMPERATURE CELSIUS

 * =Non NWS site. Station does not report precipitation (e.g. rain,
    snow, etc.), thunder, or fog.

DCZ001-MDZ009-015-VAZ040>042-051-053>054-261300-
WASHINGTON METRO

CITY           SKY/WX    TMP DP  RH WIND       PRES   REMARKS
WASHINGTON NAT CLOUDY    59  57  93 NW10      29.76R
DULLES         CLOUDY    56  55  97 NW8       29.76R FOG
ANDREWS AFB    CLOUDY    57  56  96 NW7       29.74R
FT BELVOIR     CLOUDY    57  55  94 NW7       29.75R
QUANTICO       CLOUDY    59  57  93 NW7       29.77R
COLLEGE PARK*  CLOUDY    57  55  90 N6        29.75R
LEESBURG*      CLOUDY    57  57 100 NW6       29.78R FOG
MANASSAS*        N/A     58  55  90 NW9       29.77R

$$

MDZ006>007-011-014-261300-
BALTIMORE METRO

CITY           SKY/WX    TMP DP  RH WIND       PRES   REMARKS
BWI AIRPORT    CLOUDY    58  57  97 NW7       29.73R
MD SCIENCE CTR   N/A     59  53  80 MISG      29.74R
MARTIN STATE   CLOUDY    57  57 100 NW6       29.74R FOG
ANNAPOLIS      CLOUDY    59  57  93 NW6       29.73R
FORT MEADE*    CLOUDY    55  54  94 NW5       29.76R

$$

MDZ012-015-019>023-261300-
MARYLAND EASTERN SHORE

CITY           SKY/WX    TMP DP  RH WIND       PRES   REMARKS
OCEAN CITY     FOG       57  56  96 NW5       29.69R VSB 3/4
SALISBURY      FOG       57  57 100 NW7       29.70R VSB 1
BAY BRIDGE AP* FOG       57  55  94 N6        29.73R VSB 1
CAMBRIDGE*     CLOUDY    57  57 100 NW8       29.72R FOG
EASTON*        DRIZZLE   57  55  94 N6        29.74R FOG

$$

MDZ017>025-261300-
SOUTHERN MARYLAND

CITY           SKY/WX    TMP DP  RH WIND       PRES   REMARKS
PATUXENT RIVER CLOUDY    58  58 100 NW8       29.72R
ST INIGOES     CLOUDY    58  57  97 VRB6      29.72
LEONARDTOWN*   CLOUDY    55  54  94 W6        29.75R

$$

MDZ003>005-261300-
NORTH CENTRAL MARYLAND

CITY           SKY/WX    TMP DP  RH WIND       PRES   REMARKS
FREDERICK*     CLOUDY   N/A N/A N/A CALM      29.79R
HAGERSTOWN APT CLOUDY    56  55  97 NW8       29.77R
WESTMINSTER*   CLOUDY    55  55 100 N5        29.75R

$$

MDZ501>502-261300-
WESTERN MARYLAND

CITY           SKY/WX    TMP DP  RH WIND       PRES   REMARKS
OAKLAND*       SUNNY     48  48 100 CALM      29.81R
CUMBERLAND*    CLOUDY    55  55 100 CALM      29.84R

$$

VAZ025>031-261300-
SHENANDOAH VALLEY

CITY           SKY/WX    TMP DP  RH WIND       PRES   REMARKS
WINCHESTER*    CLOUDY    54  54 100 W6        29.78S
FRONT ROYAL*   CLOUDY    54  54 100 CALM      29.78S
LURAY*         FOG       52  52 100 CALM      29.79R VSB<1/4
NEW MARKET*    CLOUDY    51  50  96 CALM      29.79R VSB 1/4
STAUNTON*      PTSUNNY   50  50 100 CALM      29.81R FOG
WAYNESBORO*    MOSUNNY   52  52 100 CALM      29.79R

$$

WVZ021-048>050-054>055-261300-
EASTERN WEST VIRGINIA PANHANDLE

CITY           SKY/WX    TMP DP  RH WIND       PRES   REMARKS
MARTINSBURG    CLOUDY    57  55  93 NW7       29.78R
PETERSBURG*    CLOUDY    56  55  94 S3        29.81R

$$

VAZ036>039-050-261300-
CENTRAL FOOTHILLS

CITY           SKY/WX    TMP DP  RH WIND       PRES   REMARKS
CHARLOTTESVILL LGT RAIN  59  54  83 CALM      29.77R
CULPEPER*      CLOUDY    58  56  92 N6        29.78R
ORANGE*        PTSUNNY   55  54  94 CALM      29.77S
GORDONSVILLE*  MOSUNNY   55  55 100 CALM      29.77R
WARRENTON*     CLOUDY    59  54  84 CALM      29.77R

$$

VAZ055>057-261300-
NORTH AND CENTRAL PIEDMONT

CITY           SKY/WX    TMP DP  RH WIND       PRES   REMARKS
FREDERICKSBRG* CLOUDY    58  58 100 N3        29.76R
STAFFORD*      CLOUDY    57  57 100 NW6       29.80R

$$

NCZ024-NYZ072-PAZ021-071-VAZ022-071-261300-
OTHER REGIONAL OBSERVATIONS

CITY           SKY/WX    TMP DP  RH WIND       PRES   REMARKS
NEW YORK CITY  CLOUDY    54  53  97 VRB6      29.78S FOG
PHILADELPHIA   CLOUDY    57  55  93 NE12      29.74R
PITTSBURGH     MOSUNNY   53  53 100 CALM      29.78R
ROANOKE        CLOUDY    56  54  93 CALM      29.83R
RICHMOND       DRIZZLE   59  58  96 NW6       29.77R FOG
RALEIGH        MOSUNNY   60  57  89 W5        29.81R

$$

ANZ530>537-261300-
MARINE OBSERVATIONS

STATION/POSITION TIME  TEMP    WIND        PRES
                       AIR SEA DIR/SP/G
                 (UTC) (F)     (DEG/KT/KT) (MB)
THOMAS PT LIGHT  1200   57 57  350/  9/ 10   N/A
BALT KEY BRIDGE  1148   58     350/  7/  8 1006.6R
COVE POINT       1148   57     340/  9/ 13 1007.1R
LEWISETTA        1148   59 61  320/  6/  7 1006.3R
SOLOMONS ISLAND  1142   57 60  310/  7/ 10   N/A
PINEY POINT      1142          340/ 10/ 11   N/A

$$




USA.gov is the U.S. government's official web portal to all federal, state and local government web resources and services.